Location: A�t Barhrar
(30.9457°N, 9.1862°W)
Time: 11:36:13
(UTC+00:00)

Daily predictions for brighter satellites

Satellite Brightness Start Highest point End
(mag) Time Altitude Azimuth Time Altitude Azimuth Time Altitude Azimuth
Cosmos 540 Rocket 3.5 17:54:07 10° SSW 17:59:12 89° ESE 18:04:19 10° NNE
SMAP 3.1 17:58:06 10° SSE 18:02:40 63° ENE 18:07:16 10° N
Cosmos 1500 Rocket 3.5 18:00:44 10° N 18:05:09 80° E 18:09:31 10° S
Meteor 1-26 Rocket 4.4 18:00:44 10° S 18:06:33 66° E 18:12:30 10° NNE
CZ-2C R/B 3.7 18:02:22 10° S 18:07:20 59° W 18:12:07 10° NNW
Nadezhda 4 Rocket 4.3 18:01:13 10° N 18:07:33 77° W 18:13:52 10° S
Cosmos 1933 3.6 18:03:57 10° S 18:08:00 74° W 18:12:02 10° N
Cosmos 1500 4.2 18:05:13 10° NNE 18:08:19 24° E 18:11:23 10° SE
CZ-2C R/B 3.1 18:04:26 10° NNE 18:09:15 39° E 18:14:03 10° SSE
Meteor 1-20 Rocket 4.3 18:03:32 10° N 18:09:22 71° E 18:15:10 10° SSE
ATLAS 5 CENTAUR R/B 4.2 17:58:29 10° SW 18:09:33 20° S 18:14:29 10° SE
PSLV R/B 4.0 18:09:47 10° SSE 18:13:15 42° ENE 18:16:45 10° N
CZ-4C R/B 4.2 18:09:09 10° N 18:14:14 19° NE 18:19:44 10° E
Cosmos 1805 Rocket 3.6 18:12:28 10° N 18:16:44 58° E 18:20:59 10° SSE
Sich 1 3.3 18:13:07 10° N 18:17:13 43° E 18:21:20 10° SSE
Cosmos 44 3.4 18:13:25 10° NNW 18:18:00 71° WSW 18:22:19 10° SSE
Cosmos 1898 Rocket 3.5 18:14:25 10° N 18:19:36 62° ENE 18:24:43 10° SSE
Cosmos 1092 Rocket 4.0 18:16:06 10° N 18:22:28 79° E 18:28:45 10° S
deb Chang Zheng 4 4.4 18:20:39 10° SE 18:24:19 28° ENE 18:27:59 10° NNE
AQUARIUS 4.2 18:21:11 10° S 18:25:40 83° W 18:30:09 10° NNW
Cosmos 1428 Rocket 4.4 18:20:53 10° N 18:27:00 74° E 18:33:10 10° S
Aurora 2 Rocket 4.0 18:22:55 10° WSW 18:27:32 45° S 18:34:05 10° ESE
Cosmos 2208 Rocket 4.4 18:22:54 10° S 18:27:58 46° ESE 18:33:09 10° NNE
GPS 2-04 Rocket1 3.4 18:24:17 10° WNW 18:28:13 42° N 18:30:51 18° ENE
H-2A R/B 2.1 18:25:32 10° SSE 18:30:42 60° ENE 18:35:44 10° N
Cosmos 2084 3.5 18:27:50 10° NNW 18:32:11 59° ENE 18:36:41 10° SE
Cosmos 2142 Rocket 4.4 18:26:18 10° S 18:32:23 70° E 18:38:31 10° N
Cosmos 1666 3.4 18:34:41 10° NNE 18:37:59 30° E 18:41:17 10° SE
CZ-4C R/B 3.5 18:37:58 23° NE 18:39:27 35° E 18:42:33 10° SSE
APEX 4.4 18:35:34 10° SSE 18:39:30 28° ESE 18:40:44 24° ENE
Cosmos 2279 Rocket 3.9 18:35:46 10° S 18:41:58 80° E 18:48:11 10° N
Meteor 1-14 Rocket 4.4 18:38:45 10° N 18:44:27 51° E 18:50:13 10° SSE
Cosmos 1812 3.0 18:42:08 10° SSW 18:45:56 70° W 18:49:46 10° N
COSMO-SKYMED 1 2.8 18:44:51 10° N 18:49:10 73° WNW 18:53:29 10° SSW
Cosmos 1697 Rocket 2.7 18:44:05 10° NNW 18:49:43 85° WSW 18:55:19 10° SSE
Cosmos 2369 3.6 18:47:40 10° NNW 18:53:21 64° ENE 18:58:59 10° SSE
Cosmos 1980 Rocket 2.3 18:48:13 10° N 18:53:40 48° ENE 18:59:03 10° SE
Cosmos 921 Rocket 3.0 18:50:58 10° S 18:55:01 54° ESE 18:56:51 29° NE
Meteor 1-5 Rocket 4.3 18:50:17 10° N 18:56:10 58° E 19:01:54 10° SSE
SL-24 R/B - RUBIN 2 4.3 18:53:17 10° N 18:56:46 31° NE 18:56:46 31° NE
Cosmos 2082 Rocket 3.5 18:53:48 10° SW 18:59:05 39° WNW 19:04:23 10° N
Cosmos 1633 Rocket 3.0 18:56:19 10° N 19:00:39 61° E 19:04:59 10° SSE
Cosmos 1937 Rocket 3.8 18:55:44 10° NNW 19:01:02 72° WSW 19:06:17 10° S
X-37B 0.7 18:59:04 10° SW 19:01:36 51° SSE 19:01:36 51° SSE
Okean O Rocket 1.5 18:58:08 10° SSE 19:02:33 71° ENE 19:06:59 10° N
USA 276 2.7 19:02:37 10° NW 19:04:58 43° NNW 19:04:58 43° NNW
Cosmos 1151 Rocket 4.2 19:04:33 10° SSW 19:08:37 42° W 19:12:44 10° N
Meteor 1-27 Rocket 4.0 19:05:41 10° SSE 19:10:52 42° E 19:11:40 40° ENE
USA 229 DEB 4.2 19:06:23 10° NW 19:13:56 72° WSW 19:21:48 10° SSE
BREEZE-M DEB (TANK) 4.0 19:09:35 10° NW 19:13:59 45° SW 19:15:01 29° S
USA 229 4.2 19:06:28 10° NW 19:14:02 72° WSW 19:21:54 10° SSE
Tiangong 3.8 19:12:06 10° S 19:12:33 12° S 19:12:33 12° S
Cosmos 372 Rocket 3.9 19:09:53 10° NNW 19:15:08 87° WSW 19:20:23 10° SSE
Cosmos 2278 3.7 19:12:13 10° N 19:17:47 55° ENE 19:21:04 24° SE
ARGOS 3.2 19:14:39 10° S 19:20:04 78° WSW 19:25:30 10° NNW
USA 234 3.2 19:13:55 10° SE 19:20:29 85° SW 19:27:02 10° NW
Meteor 2-15 4.5 19:15:18 10° S 19:21:24 79° W 19:27:31 10° N
IRAS Rocket 4.1 19:21:48 36° NNE 19:24:05 71° ESE 19:29:35 10° S
NOSS 3-3 (A) 4.2 19:19:20 10° S 19:23:55 39° SE 19:23:55 39° SE
NOSS 3-3 (C) 4.2 19:19:27 10° S 19:23:59 39° SE 19:23:59 39° SE
Cosmos 1666 Rocket 4.4 19:21:15 10° NNW 19:25:32 49° W 19:29:45 10° SSW
Cosmos 1655 Rocket 3.9 19:20:41 10° N 19:27:02 66° E 19:33:18 10° SSE
NOAA 15 4.4 19:31:00 10° SSE 19:36:17 77° ENE 19:41:34 10° N
SL-08 RB Rocket 4.0 19:32:04 10° S 19:36:42 69° W 19:41:19 10° NNW
CZ-4B R/B 4.4 19:32:20 10° S 19:37:28 41° W 19:42:32 10° NNW
CZ-2C R/B 1.9 19:33:50 10° WSW 19:37:08 53° W 19:37:08 53° W
DMSP B5D2-2 4.3 19:37:54 29° N 19:40:35 66° WNW 19:45:45 10° SSW
Delta 128 4.2 19:38:26 10° W 19:44:41 65° S 19:45:01 64° SSE
ATLAS 3B CENTAUR R/B 4.4 19:32:09 10° W 19:52:23 80° S 19:58:12 46° E
H-2A R/B 3.6 19:58:21 31° SSW 19:58:21 31° SSW 20:00:46 10° SSW
CZ-4C R/B 3.0 19:55:50 10° NNW 20:03:43 84° ENE 20:05:34 60° SE
Cosmos 1867 4.3 20:04:14 10° SW 20:08:29 50° WSW 20:08:29 50° WSW
